Time,TemperatureF,DewpointF,PressureIn,WindDirection,WindDirectionDegrees,WindSpeedMPH,WindSpeedGustMPH,Humidity,HourlyPrecipIn,Conditions,Clouds,dailyrainin,SoftwareType,DateUTC
2013-07-10 00:33:00,70.0,-99.9,30.05,SE,135,-999.0,-999.0,-999,0.00,,,-99.99,,2013-07-10 04:33:00,
2013-07-10 00:43:00,70.0,-99.9,30.05,SE,135,-999.0,-999.0,-999,0.00,,,-99.99,,2013-07-10 04:43:00,
2013-07-10 00:53:00,70.0,-99.9,30.02,SE,135,-999.0,-999.0,-999,-99.99,,,-99.99,,2013-07-10 04:53:00,
2013-07-10 01:32:00,70.0,-99.9,30.02,SE,135,-999.0,-999.0,-999,-99.99,,,-99.99,,2013-07-10 05:32:00,
2013-07-10 01:42:00,70.0,-99.9,30.02,SE,135,-999.0,-999.0,-999,-99.99,,,-99.99,,2013-07-10 05:42:00,
2013-07-10 01:52:00,69.0,-99.9,30.01,SE,135,-999.0,-999.0,-999,0.00,,,-99.99,,2013-07-10 05:52:00,
2013-07-10 02:33:00,69.0,-99.9,30.01,SE,135,-999.0,-999.0,-999,0.00,,,-99.99,,2013-07-10 06:33:00,
2013-07-10 02:42:00,69.0,-99.9,30.01,SE,135,-999.0,-999.0,-999,0.00,,,-99.99,,2013-07-10 06:42:00,
2013-07-10 02:52:00,69.0,-99.9,30.00,SE,135,-999.0,-999.0,-999,0.00,,,-99.99,,2013-07-10 06:52:00,
2013-07-10 03:33:00,69.0,-99.9,30.00,SE,135,-999.0,-999.0,-999,0.00,,,-99.99,,2013-07-10 07:33:00,
2013-07-10 03:43:00,69.0,-99.9,30.00,SE,135,-999.0,-999.0,-999,0.00,,,-99.99,,2013-07-10 07:43:00,
2013-07-10 03:52:00,68.0,-99.9,29.98,SE,135,-999.0,-999.0,-999,0.00,,,-99.99,,2013-07-10 07:52:00,
2013-07-10 04:33:00,68.0,-99.9,29.98,SE,135,-999.0,-999.0,-999,0.00,,,-99.99,,2013-07-10 08:33:00,
2013-07-10 04:43:00,68.0,-99.9,29.98,SE,135,-999.0,-999.0,-999,0.00,,,-99.99,,2013-07-10 08:43:00,
2013-07-10 04:52:00,69.0,-99.9,29.99,SE,135,-999.0,-999.0,-999,0.00,,,-99.99,,2013-07-10 08:52:00,
2013-07-10 05:33:00,69.0,-99.9,29.99,SE,135,-999.0,-999.0,-999,0.00,,,-99.99,,2013-07-10 09:33:00,
2013-07-10 05:43:00,69.0,-99.9,29.99,SE,135,-999.0,-999.0,-999,0.00,,,-99.99,,2013-07-10 09:43:00,
2013-07-10 06:32:00,69.0,-99.9,29.98,SE,135,-999.0,-999.0,-999,0.00,,,-99.99,,2013-07-10 10:32:00,
2013-07-10 06:52:00,70.0,-99.9,29.98,SE,135,-999.0,-999.0,-999,0.00,,,-99.99,,2013-07-10 10:52:00,
2013-07-10 07:33:00,70.0,-99.9,29.98,SE,135,-999.0,-999.0,-999,0.00,,,-99.99,,2013-07-10 11:33:00,
2013-07-10 07:43:00,70.0,-99.9,29.98,SE,135,-999.0,-999.0,-999,0.00,,,-99.99,,2013-07-10 11:43:00,
2013-07-10 07:52:00,71.0,-99.9,29.97,SE,135,-999.0,-999.0,-999,0.00,,,-99.99,,2013-07-10 11:52:00,
2013-07-10 08:43:00,71.0,-99.9,29.97,SE,135,-999.0,-999.0,-999,0.00,,,-99.99,,2013-07-10 12:43:00,
2013-07-10 08:52:00,73.0,-99.9,29.97,SE,135,-999.0,-999.0,-999,0.00,,,-99.99,,2013-07-10 12:52:00,
2013-07-10 09:32:00,73.0,-99.9,29.97,SE,135,-999.0,-999.0,-999,0.00,,,-99.99,,2013-07-10 13:32:00,
2013-07-10 09:43:00,73.0,-99.9,29.97,SE,135,-999.0,-999.0,-999,0.00,,,-99.99,,2013-07-10 13:43:00,
2013-07-10 09:52:00,74.0,-99.9,29.97,SW,232,-999.0,5.0,-999,0.00,,,-99.99,,2013-07-10 13:52:00,
2013-07-10 10:33:00,74.0,-99.9,29.97,SW,232,-999.0,5.0,-999,0.00,,,-99.99,,2013-07-10 14:33:00,
2013-07-10 10:44:00,74.0,-99.9,29.97,SW,232,-999.0,5.0,-999,0.00,,,-99.99,,2013-07-10 14:44:00,
2013-07-10 10:52:00,76.0,-99.9,29.96,SW,236,-999.0,5.0,-999,0.00,,,-99.99,,2013-07-10 14:52:00,
2013-07-10 11:34:00,76.0,-99.9,29.96,SW,236,-999.0,5.0,-999,0.00,,,-99.99,,2013-07-10 15:34:00,
2013-07-10 11:43:00,76.0,-99.9,29.96,SW,236,-999.0,5.0,-999,0.00,,,-99.99,,2013-07-10 15:43:00,
2013-07-10 11:53:00,81.0,-99.9,29.95,NE,53,-999.0,7.0,-999,0.00,,,-99.99,,2013-07-10 15:53:00,
2013-07-10 12:44:00,81.0,-99.9,29.95,NE,53,-999.0,7.0,-999,0.00,,,-99.99,,2013-07-10 16:44:00,
2013-07-10 12:52:00,78.0,-99.9,29.94,WSW,246,5.0,7.0,-999,0.13,,,-99.99,,2013-07-10 16:52:00,
2013-07-10 13:32:00,78.0,-99.9,29.94,WSW,246,5.0,7.0,-999,0.13,,,-99.99,,2013-07-10 17:32:00,
2013-07-10 13:43:00,78.0,-99.9,29.94,WSW,246,5.0,7.0,-999,0.13,,,-99.99,,2013-07-10 17:43:00,
2013-07-10 13:52:00,80.0,-99.9,29.91,SW,225,-999.0,11.0,-999,0.00,,,-99.99,,2013-07-10 17:52:00,
2013-07-10 14:32:00,80.0,-99.9,29.91,SW,225,-999.0,11.0,-999,0.00,,,-99.99,,2013-07-10 18:32:00,
2013-07-10 14:44:00,80.0,-99.9,29.91,SW,225,-999.0,11.0,-999,0.00,,,-99.99,,2013-07-10 18:44:00,
2013-07-10 14:52:00,81.0,-99.9,29.89,WSW,250,5.0,5.0,-999,0.00,,,-99.99,,2013-07-10 18:52:00,
2013-07-10 15:32:00,81.0,-99.9,29.89,WSW,250,5.0,5.0,-999,0.00,,,-99.99,,2013-07-10 19:32:00,
2013-07-10 15:42:00,81.0,-99.9,29.89,WSW,250,5.0,5.0,-999,0.00,,,-99.99,,2013-07-10 19:42:00,
2013-07-10 15:52:00,82.0,-99.9,29.88,West,268,3.0,13.0,-999,0.00,,,-99.99,,2013-07-10 19:52:00,
2013-07-10 16:32:00,82.0,-99.9,29.88,West,268,3.0,13.0,-999,0.00,,,-99.99,,2013-07-10 20:32:00,
2013-07-10 16:43:00,82.0,-99.9,29.88,West,268,3.0,13.0,-999,0.00,,,-99.99,,2013-07-10 20:43:00,
2013-07-10 16:52:00,80.0,-99.9,29.85,SE,142,2.0,8.0,-999,0.00,,,-99.99,,2013-07-10 20:52:00,
2013-07-10 17:32:00,80.0,-99.9,29.85,SE,142,2.0,8.0,-999,0.00,,,-99.99,,2013-07-10 21:32:00,
2013-07-10 17:42:00,80.0,-99.9,29.85,SE,142,2.0,8.0,-999,0.00,,,-99.99,,2013-07-10 21:42:00,
2013-07-10 17:52:00,79.0,-99.9,29.85,SW,220,5.0,9.0,-999,0.00,,,-99.99,,2013-07-10 21:52:00,
2013-07-10 18:33:00,79.0,-99.9,29.85,SW,220,5.0,9.0,-999,0.00,,,-99.99,,2013-07-10 22:33:00,
2013-07-10 18:43:00,79.0,-99.9,29.85,SW,220,5.0,9.0,-999,0.00,,,-99.99,,2013-07-10 22:43:00,
2013-07-10 18:52:00,76.0,-99.9,29.86,SW,218,2.0,-999.0,-999,0.00,,,-99.99,,2013-07-10 22:52:00,
2013-07-10 19:32:00,76.0,-99.9,29.86,SW,218,2.0,-999.0,-999,0.00,,,-99.99,,2013-07-10 23:32:00,
2013-07-10 19:43:00,76.0,-99.9,29.86,SW,218,2.0,-999.0,-999,0.00,,,-99.99,,2013-07-10 23:43:00,
2013-07-10 19:52:00,75.0,-99.9,29.87,SW,218,-999.0,-999.0,-999,0.00,,,-99.99,,2013-07-10 23:52:00,
2013-07-10 20:32:00,75.0,-99.9,29.87,SW,218,-999.0,-999.0,-999,0.00,,,-99.99,,2013-07-11 00:32:00,
2013-07-10 20:43:00,75.0,-99.9,29.87,SW,218,-999.0,-999.0,-999,0.00,,,-99.99,,2013-07-11 00:43:00,
2013-07-10 20:52:00,74.0,-99.9,29.87,SW,218,-999.0,-999.0,-999,0.00,,,-99.99,,2013-07-11 00:52:00,
2013-07-10 21:32:00,74.0,-99.9,29.87,SW,218,-999.0,-999.0,-999,0.00,,,-99.99,,2013-07-11 01:32:00,
2013-07-10 21:43:00,74.0,-99.9,29.87,SW,218,-999.0,-999.0,-999,0.00,,,-99.99,,2013-07-11 01:43:00,
2013-07-10 21:52:00,73.0,-99.9,29.88,SW,218,-999.0,-999.0,-999,0.00,,,-99.99,,2013-07-11 01:52:00,
2013-07-10 22:32:00,73.0,-99.9,29.88,SW,218,-999.0,-999.0,-999,0.00,,,-99.99,,2013-07-11 02:32:00,
2013-07-10 22:44:00,73.0,-99.9,29.88,SW,218,-999.0,-999.0,-999,0.00,,,-99.99,,2013-07-11 02:44:00,
2013-07-10 22:52:00,73.0,-99.9,29.87,SW,218,-999.0,-999.0,-999,0.00,,,-99.99,,2013-07-11 02:52:00,
2013-07-10 23:33:00,73.0,-99.9,29.87,SW,218,-999.0,-999.0,-999,0.00,,,-99.99,,2013-07-11 03:33:00,
2013-07-10 23:42:00,73.0,-99.9,29.87,SW,218,-999.0,-999.0,-999,0.00,,,-99.99,,2013-07-11 03:42:00,
2013-07-10 23:52:00,73.0,-99.9,29.86,SW,218,-999.0,-999.0,-999,0.00,,,-99.99,,2013-07-11 03:52:00,